Location: Bannatyne
(13.0833°N, 59.5333°W)
Time: 06:20:11
(UTC+00:00)

Cosmos 1763 Rocket - Pass Details

Date: 18 October 2019
Orbit: 733 x 779 km, 74.0° (Epoch: 18 November)

Event Time Altitude Azimuth Distance (km) Brightness Sun altitude
Rises 23:28:02 0° 200° (SSW) 3,242 7.0 -27.5°
Reaches altitude 10° 23:30:26 10° 203° (SSW) 2,319 6.3 -28.1°
Maximum altitude 23:35:38 62° 283° (WNW) 875 3.9 -29.4°
Enters shadow 23:36:18 56° 318° (NW) 917 3.9 -29.5°
